Regional Weather Roundup
Issued by NWS

Home | Current Version | Previous Version | Graphics & Text | Print | Product List | Glossary On
Versions: 1 2 3 4 5 6 7 8 9 10 11 12 13 14 15 16 17 18 19 20 21 22 23 24 25 26 27 28 29 30 31 32 33 34 35 36 37 38 39 40 41 42 43 44 45 46 47 48 49 50
647
ASUS43 KLSX 241957
RWRMO

WEATHER SUMMARY FOR MISSOURI
NATIONAL WEATHER SERVICE SPRINGFIELD MO
200 PM CST SAT FEB 24 2018

NOTE: "FAIR" INDICATES FEW OR NO CLOUDS BELOW 12,000 FEET WITH NO
       SIGNIFICANT WEATHER AND/OR OBSTRUCTIONS TO VISIBILITY.
       CURRENT SKY AND/OR WEATHER CONDITIONS ARE NOT AVAILABLE FOR
       CHILLICOTHE AND FARMINGTON.

MOZ001>031-035>038-043-044-053-054-242100-
...NORTHERN AND WESTERN MISSOURI...

CITY           SKY/WX    TMP DP  RH WIND       PRES   REMARKS
KANSAS CTY INT FOG       39  39 100 SW6       29.70F VSB 1/4
LEE`S SUMMIT   CLOUDY    43  43 100 SW8       29.67F
ST JOSEPH      CLOUDY    37  37 100 W8        29.73F FOG
CHILLICOTHE      N/A     40  40 100 SE9       29.70F

$$
MOZ066>068-077>081-088>096-101>105-242100-
...SOUTHWEST MISSOURI...

CITY           SKY/WX    TMP DP  RH WIND       PRES   REMARKS
SPRINGFIELD    RAIN      52  52 100 E14       29.64F FOG
JOPLIN         LGT RAIN  52  52 100 W9        29.69R
BRANSON        TSTM      54  54 100 SE8       29.73F

$$
MOZ032>034-039>042-045>050-055>058-069>072-242100-
...CENTRAL MISSOURI...

CITY           SKY/WX    TMP DP  RH WIND       PRES   REMARKS
COLUMBIA       LGT RAIN  45  45 100 SE10      29.76S VSB 1/4
JEFFERSON CITY LGT RAIN  46  46 100 E3        29.76F FOG
ROLLA          RAIN      50  50 100 E12       29.76F FOG
SEDALIA        HVY RAIN  45  45 100 NE6       29.71F FOG
WARRENSBURG    CLOUDY    43  43 100 E6        29.68F
OSAGE BEACH    HVY RAIN  52  52 100 S3        29.76R FOG

$$
MOZ051-052-059>065-242100-
...EAST CENTRAL MISSOURI...

CITY           SKY/WX    TMP DP  RH WIND       PRES   REMARKS
ST LOUIS INTL  FOG       47  47 100 E8        29.81F VSB 1/4

$$
MOZ072>076-082>087-097>100-106>115-242100-
...SOUTH CENTRAL AND SOUTHEAST MISSOURI...

CITY           SKY/WX    TMP DP  RH WIND       PRES   REMARKS
CAPE GIRARDEAU RAIN      57  55  93 E7        29.80F
FARMINGTON     HVY RAIN  52  52 100 E5        29.79F
POPLAR BLUFF   RAIN      53  53 100 E3        29.80F FOG
WEST PLAINS    RAIN      52  52 100 E5        29.73F FOG

$$



USA.gov is the U.S. government's official web portal to all federal, state and local government web resources and services.